[[{"header":{"parameterUnit":"m.s-1","parameterCategory":1,"la1":30.2991,"la2":30.254,"lo1":-89.0895,"lo2":-89.0444,"dy":0.0017,"dx":0.0017,"nx":28,"ny":28,"refTime":"2025-04-24T03:00:00:Z","depth":0,"parameterNumber":2,"parameterNumberName":"U-component_of_WINDS"},"data":[0,0,0,0,0,0,0,0,0,0,0,0,0,0,0,0,0,0,0,0,0,0,0,0,0,0,0,0,0,0,0,0,0,0,0,0,0,0,0,0,0,0,0,0,0,0,0,0,0,0,0,0,0,0,0,0,0,0,-2.9278,-2.9278,0,-2.9305,-2.9305,-2.9305,-2.9258,-2.9256,-2.9254,-2.9253,-2.928,-2.9283,-2.9285,0,0,0,0,0,0,0,0,0,0,0,0,0,-2.9184,-2.9186,-2.9278,-2.9278,-2.9278,-2.9305,-2.9305,-2.9305,-2.9258,-2.9256,-2.9254,-2.9252,-2.928,-2.9282,-2.9285,0,0,0,0,0,0,0,0,0,0,0,0,0,-2.922,-2.9187,-2.9277,-2.9258,-2.9256,-2.9305,-2.9305,-2.9306,-2.9258,-2.9256,-2.9253,-2.9251,-2.9279,-2.9282,-2.9285,-2.9354,0,0,-2.9296,-2.9297,0,0,0,0,0,0,0,0,-2.9218,-2.9223,-2.926,-2.9259,-2.9258,-2.9275,-2.9282,-2.9322,-2.9259,-2.9258,-2.9253,-2.925,-2.9281,-2.9284,-2.9294,-2.9356,-2.9357,-2.9296,-2.9298,-2.9299,-2.93,0,0,0,0,0,0,0,-2.9215,-2.9222,-2.9288,-2.9261,-2.9259,-2.9247,-2.925,-2.929,-2.9282,-2.9257,-2.9254,-2.9258,-2.9279,-2.9291,-2.9294,-2.9357,-2.9296,-2.9299,-2.9301,-2.9302,-2.9476,-2.9478,0,0,0,0,0,0,-2.9215,-2.922,-2.9287,-2.9289,-2.9231,-2.9251,-2.9254,-2.9272,-2.9282,-2.9281,-2.926,-2.9256,-2.9286,-2.9291,-2.9295,-2.9375,-2.9299,-2.9303,-2.9304,-2.9473,-2.9476,-2.9479,0,0,0,0,0,0,-2.9213,-2.9222,-2.9286,-2.9254,-2.9261,-2.9255,-2.9276,-2.9274,-2.9285,-2.9284,-2.9282,-2.9273,-2.9285,-2.929,-2.934,-2.9376,-2.9304,-2.9307,-2.947,-2.9474,-2.9478,-2.9537,0,0,0,0,0,0,-2.9211,-2.9221,-2.9247,-2.9255,-2.9263,-2.9331,-2.9279,-2.9276,-2.9291,-2.9286,-2.9295,-2.9295,-2.9283,-2.9335,-2.9343,-2.9379,-2.931,-2.9467,-2.9472,-2.9477,-2.9532,-2.9543,-2.9552,0,0,0,0,0,-2.9208,-2.9263,-2.9249,-2.9257,-2.9295,-2.9333,-2.9338,-2.9323,-2.9294,-2.932,-2.9319,-2.9294,-2.9371,-2.9341,-2.9349,-2.9387,-2.9465,-2.9471,-2.9476,-2.9527,-2.9541,-2.9552,0,0,0,0,0,0,-2.926,-2.9264,-2.9248,-2.9307,-2.932,-2.9325,-2.9357,-2.9338,-2.9359,-2.9353,-2.9334,-2.9337,-2.939,-2.9393,-2.9359,-2.9454,-2.9413,-2.9421,-2.9449,-2.9461,-2.9471,-2.9468,-2.9312,0,0,0,0,0,-2.9279,-2.9309,-2.931,-2.9363,-2.937,-2.9363,-2.9378,-2.9366,-2.9379,-2.9384,-2.9387,-2.94,-2.9426,-2.9444,-2.9469,-2.9533,-2.9534,-2.9563,-2.9573,-2.9581,-2.9588,-2.9621,-2.9633,-2.9499,-2.9499,-2.9498,0,0,-2.9317,-2.9323,-2.9343,-2.9373,-2.9382,-2.9413,-2.9367,-2.9403,-2.9426,-2.9389,-2.9435,-2.9438,-2.9452,-2.9508,-2.9533,-2.9513,-2.9625,-2.9589,-2.9595,-2.9597,-2.9628,-2.9641,-2.9652,-2.9503,-2.9502,-2.9501,0,0,-2.9402,-2.9411,-2.9454,-2.9464,-2.9478,-2.9472,-2.9483,-2.9491,-2.9491,-2.9538,-2.9511,-2.9538,-2.9585,-2.9595,-2.9607,-2.9697,-2.9674,-2.9706,-2.9757,-2.9789,-2.98,-2.9809,-2.984,-2.9851,-2.9713,-2.9713,-2.9713,0,-2.9448,-2.9494,-2.9479,-2.9516,-2.953,-2.9499,-2.9543,-2.9554,-2.9575,-2.9585,-2.9562,-2.962,-2.9627,-2.9685,-2.9707,-2.9718,-2.9729,-2.9704,-2.98,-2.9809,-2.9817,-2.9846,-2.9858,-2.9716,-2.9716,-2.9716,-2.9715,0,-2.9549,-2.9582,-2.9616,-2.9637,-2.9655,-2.9695,-2.9686,-2.9706,-2.9693,-2.9691,-2.9738,-2.9746,-2.9771,-2.9784,-2.9772,-2.9841,-2.9827,-2.9803,-2.9761,-2.9834,-2.9861,-2.9872,-2.9722,-2.972,-2.9719,-2.9718,0,0,-2.9667,-2.968,-2.9692,-2.9701,-2.9714,-2.9739,-2.9778,-2.9803,-2.982,-2.9836,-2.9868,-2.9909,-2.9886,-2.9899,-2.9888,-2.9917,-2.9986,-2.9888,-2.9888,-2.9904,-3.0061,-3.0078,-3.0091,-2.9972,-2.9974,-2.9976,-3.0059,0,-2.9751,-2.9818,-2.9806,-2.9871,-2.99,-2.9872,-2.9906,-2.9918,-2.9917,-2.9942,-2.994,-2.9969,-2.9937,-2.9945,-2.9972,-2.9972,-3.0017,-2.9966,-3.0,-3.0002,-2.9996,-3.0105,-3.0124,-3.0202,-3.007,-3.0072,-3.0073,0,-2.9857,-2.9877,-2.9945,-2.9953,-2.9965,-2.9996,-3.0017,-3.0042,-3.0054,-3.0052,-3.0067,-3.005,-3.0089,-3.0048,-3.0101,-3.0066,-3.008,-3.0082,-3.0085,-3.0086,-3.004,-3.0108,-3.0227,-3.0238,-3.009,-3.0088,-3.0087,0,-2.9934,-2.9978,-3.0024,-3.0033,-3.0044,-3.0066,-3.0072,-3.0082,-3.0098,-3.0117,-3.0127,-3.0151,-3.0163,-3.0182,-3.0172,-3.0144,-3.0226,-3.0185,-3.0223,-3.0224,-3.024,-3.0239,-3.0361,-3.0253,-3.0253,-3.0252,-3.0252,0,-3.0028,-3.007,-3.0059,-3.0087,-3.0133,-3.0119,-3.0166,-3.0168,-3.0178,-3.0206,-3.0184,-3.021,-3.0197,-3.0222,-3.0215,-3.0259,-3.0265,-3.0264,-3.0261,-3.0264,-3.0264,-3.0272,-3.0265,-3.0255,-3.0255,-3.0254,-3.0254,0,-3.0121,-3.0115,-3.0163,-3.017,-3.0173,-3.0206,-3.0212,-3.0238,-3.0236,-3.0272,-3.0279,-3.0275,-3.0305,-3.0297,-3.0329,-3.0324,-3.0379,-3.037,-3.0374,-3.0372,-3.041,-3.0406,-3.0539,-3.0556,-3.0439,-3.044,-3.0441,0,-3.018,-3.0212,-3.0222,-3.0239,-3.0246,-3.0274,-3.029,-3.0278,-3.0295,-3.0313,-3.0337,-3.0364,-3.0385,-3.0432,-3.0432,-3.0456,-3.0447,-3.0492,-3.045,-3.0453,-3.0445,-3.0443,-3.0445,-3.05,-3.0501,-3.0502,-3.0503,0,-3.0285,-3.0281,-3.0304,-3.0327,-3.0347,-3.0364,-3.0379,-3.0395,-3.0384,-3.0405,-3.0434,-3.045,-3.0483,-3.0509,-3.0532,-3.0537,-3.0518,-3.0517,-3.0527,-3.053,-3.053,-3.0529,-3.0395,-3.0513,-3.0512,-3.0511,-3.0511,-3.0511,-3.0362,-3.0388,-3.04,-3.0427,-3.0437,-3.0452,-3.0477,-3.0477,-3.0502,-3.0527,-3.0519,-3.0552,-3.0564,-3.0592,-3.06,-3.0626,-3.0609,-3.0623,-3.0627,-3.063,-3.0634,-3.0528,-3.063,-3.063,-3.063,-3.0629,-3.0629,0,-3.0464,-3.047,-3.0495,-3.0517,-3.0539,-3.052,-3.0536,-3.0555,-3.0584,-3.0597,-3.0618,-3.0652,-3.0678,-3.068,-3.0705,-3.0725,-3.0716,-3.0731,-3.0729,-3.073,-3.0649,-3.0637,-3.0737,-3.0737,-3.0737,-3.0737,-3.0737,-3.0737,-3.052,-3.0564,-3.0561,-3.061,-3.0615,-3.0648,-3.0658,-3.0672,-3.0682,-3.072,-3.0741,-3.0743,-3.0751,-3.0776,-3.0799,-3.0799,-3.0808,-3.0826,-3.0823,-3.0747,-3.0736,-3.0725,-3.0714,-3.0829,-3.0829,-3.0901,-3.0902,-3.0902]},{"header":{"parameterUnit":"m.s-1","parameterCategory":1,"la1":30.2991,"la2":30.254,"lo1":-89.0895,"lo2":-89.0444,"dy":0.0017,"dx":0.0017,"nx":28,"ny":28,"refTime":"2025-04-24T03:00:00:Z","depth":0,"parameterNumber":3,"parameterNumberName":"V-component_of_WINDS"},"data":[0,0,0,0,0,0,0,0,0,0,0,0,0,0,0,0,0,0,0,0,0,0,0,0,0,0,0,0,0,0,0,0,0,0,0,0,0,0,0,0,0,0,0,0,0,0,0,0,0,0,0,0,0,0,0,0,0,0,3.148,3.148,0,3.1496,3.1497,3.1497,3.1491,3.149,3.149,3.149,3.1505,3.1506,3.1506,0,0,0,0,0,0,0,0,0,0,0,0,0,3.1443,3.1444,3.148,3.148,3.148,3.1496,3.1497,3.1497,3.1491,3.149,3.149,3.149,3.1505,3.1506,3.1506,0,0,0,0,0,0,0,0,0,0,0,0,0,3.1459,3.1444,3.148,3.1479,3.148,3.1496,3.1497,3.1497,3.1491,3.149,3.149,3.1489,3.1504,3.1505,3.1507,3.1525,0,0,3.151,3.1511,0,0,0,0,0,0,0,0,3.1458,3.146,3.1479,3.1479,3.148,3.1491,3.1489,3.1506,3.1491,3.1487,3.149,3.1489,3.1501,3.1502,3.1506,3.1525,3.1526,3.151,3.1511,3.1511,3.1512,0,0,0,0,0,0,0,3.1457,3.146,3.1486,3.148,3.148,3.1478,3.148,3.1492,3.1496,3.1487,3.1487,3.1489,3.1501,3.1505,3.1507,3.1526,3.151,3.1511,3.1512,3.1512,3.1562,3.1563,0,0,0,0,0,0,3.1456,3.1459,3.1486,3.1487,3.1467,3.1479,3.1481,3.1488,3.1496,3.1497,3.1489,3.1488,3.1504,3.1505,3.1507,3.153,3.1511,3.1512,3.1513,3.1561,3.1562,3.1563,0,0,0,0,0,0,3.1455,3.1458,3.1485,3.1473,3.1476,3.148,3.1488,3.1489,3.1493,3.1498,3.1499,3.1493,3.1503,3.1506,3.1521,3.153,3.1513,3.1514,3.1561,3.1562,3.1562,3.1574,0,0,0,0,0,0,3.1454,3.1458,3.1465,3.1473,3.1477,3.1499,3.1489,3.1489,3.1495,3.1494,3.1502,3.1503,3.1503,3.1519,3.1522,3.1531,3.1515,3.156,3.1561,3.1562,3.1573,3.1575,3.1577,0,0,0,0,0,3.1453,3.1467,3.1465,3.1469,3.1486,3.1499,3.1501,3.1502,3.1496,3.1503,3.1506,3.1502,3.1529,3.1521,3.1524,3.1534,3.1559,3.1561,3.1562,3.1572,3.1575,3.1577,0,0,0,0,0,0,3.1459,3.1468,3.1466,3.1483,3.1491,3.1498,3.1507,3.1505,3.1514,3.1512,3.1512,3.1514,3.153,3.1533,3.1524,3.1552,3.1543,3.1545,3.1549,3.1552,3.1554,3.1553,3.1516,0,0,0,0,0,3.1462,3.1473,3.148,3.1495,3.1499,3.1502,3.1508,3.1508,3.1516,3.1518,3.1523,3.153,3.154,3.1546,3.1555,3.1573,3.1575,3.1582,3.1584,3.1586,3.1588,3.1599,3.1602,3.1568,3.1568,3.1568,0,0,3.1469,3.1476,3.1482,3.1496,3.1502,3.1513,3.1505,3.1517,3.1525,3.152,3.1535,3.1539,3.1546,3.1563,3.1571,3.1567,3.1598,3.1588,3.1589,3.159,3.16,3.1604,3.1607,3.1569,3.1568,3.1568,0,0,3.1488,3.1494,3.1507,3.1513,3.1523,3.1525,3.1528,3.1537,3.1539,3.1554,3.1551,3.1561,3.1578,3.1584,3.1589,3.1612,3.1609,3.1615,3.1627,3.1637,3.164,3.1642,3.1651,3.1654,3.1617,3.1617,3.1617,0,3.1495,3.1513,3.1514,3.1527,3.1533,3.153,3.1544,3.155,3.1561,3.1566,3.1561,3.1583,3.1588,3.1607,3.1613,3.1617,3.1621,3.1614,3.1639,3.1642,3.1644,3.1653,3.1656,3.1617,3.1617,3.1617,3.1617,0,3.1522,3.1534,3.1543,3.1556,3.1563,3.1576,3.158,3.1587,3.1587,3.159,3.1606,3.1612,3.1623,3.1628,3.1627,3.1647,3.1644,3.1639,3.163,3.1648,3.1656,3.1659,3.1618,3.1618,3.1618,3.1618,0,0,3.1544,3.1558,3.1562,3.1568,3.1578,3.1588,3.1601,3.1613,3.1619,3.1628,3.1639,3.1654,3.165,3.1656,3.1656,3.1665,3.1684,3.166,3.166,3.1665,3.1708,3.1712,3.1715,3.1682,3.1683,3.1683,3.1707,0,3.1564,3.1588,3.159,3.1612,3.1623,3.1622,3.1633,3.1641,3.1645,3.1655,3.1658,3.167,3.1663,3.1667,3.1676,3.168,3.1693,3.1678,3.1693,3.1694,3.1692,3.1719,3.1723,3.1745,3.171,3.1711,3.1711,0,3.159,3.1601,3.1624,3.1634,3.1639,3.165,3.1661,3.1671,3.168,3.1682,3.169,3.1689,3.1703,3.1693,3.1712,3.1703,3.1709,3.1712,3.1713,3.1714,3.1704,3.1722,3.1752,3.1756,3.1716,3.1715,3.1715,0,3.1605,3.1625,3.1642,3.1647,3.1659,3.1667,3.1672,3.1681,3.1688,3.1698,3.1703,3.1714,3.172,3.1729,3.1731,3.1724,3.1751,3.1741,3.1753,3.1753,3.1759,3.1758,3.1791,3.1762,3.1762,3.1762,3.1762,0,3.1627,3.1642,3.1649,3.1659,3.1675,3.1678,3.1694,3.1698,3.1706,3.1718,3.1716,3.1727,3.1729,3.174,3.1742,3.1758,3.1761,3.1763,3.1763,3.1763,3.1763,3.1768,3.1766,3.1763,3.1763,3.1762,3.1762,0,3.1647,3.1652,3.167,3.1681,3.1684,3.1695,3.1704,3.1714,3.1718,3.1733,3.1736,3.1742,3.1755,3.1758,3.1773,3.1775,3.1794,3.1793,3.1792,3.1792,3.1803,3.1803,3.184,3.1845,3.1813,3.1813,3.1813,0,3.1661,3.1672,3.1685,3.1693,3.1699,3.1711,3.1719,3.1722,3.1731,3.1743,3.1751,3.1764,3.1775,3.1796,3.1801,3.1813,3.1812,3.1825,3.1814,3.1814,3.1813,3.1813,3.1815,3.1827,3.1827,3.1827,3.1828,0,3.1686,3.1688,3.17,3.1713,3.1723,3.1734,3.1743,3.175,3.1755,3.1764,3.1778,3.1786,3.1803,3.1816,3.1828,3.1833,3.1831,3.1831,3.1835,3.1835,3.1834,3.1835,3.1798,3.183,3.183,3.183,3.183,3.183,3.1703,3.1714,3.1725,3.1739,3.1747,3.1756,3.1767,3.1773,3.1784,3.1799,3.18,3.1815,3.1824,3.1841,3.1847,3.1859,3.1855,3.186,3.1861,3.1863,3.1864,3.1832,3.1861,3.1861,3.1861,3.1861,3.1861,0,3.1729,3.1736,3.1749,3.1764,3.1775,3.1773,3.1784,3.1793,3.1807,3.1817,3.1828,3.1844,3.1857,3.1864,3.1877,3.1885,3.1885,3.1889,3.1888,3.189,3.1866,3.1862,3.1889,3.1889,3.1889,3.1889,3.1889,3.1889,3.1744,3.1762,3.1766,3.1788,3.1795,3.1811,3.1817,3.1826,3.1834,3.1853,3.1864,3.1869,3.1878,3.1892,3.1904,3.1905,3.191,3.1915,3.1916,3.1894,3.1891,3.1888,3.1885,3.1916,3.1916,3.1939,3.1939,3.1939]}]]